Hourly Data Report for October 28, 2015

All times are specified in Local Standard Time (LST). Add 1 hour to adjust for Daylight Saving Time where and when it is observed.

PENTICTON A
BRITISH COLUMBIA

49°27'45.000" N
119°36'08.000" W
344.40 m
1126146
71889
YYF

Download Data

Hourly Data (October 2015)
Hourly Data Report for October 28, 2015
Temp Definition
°C
Dew Point Temp Definition
°C
Rel Hum Definition
%
Wind Dir Definition
10's deg

Wind Spd Definition
km/h
Visibility Definition
km
Stn Press Definition
kPa
Hmdx Definition


Wind Chill Definition


Weather Definition


TIME
00:00 Legend Double Dagger 2.6 0.5 86 3 11 24.1 97.90     LegendNANA
01:00 Legend Double Dagger 3.5 0.9 83 3 9 24.1 97.88     Cloudy
02:00 Legend Double Dagger 3.7 1.3 84 2 4 24.1 97.85     LegendNANA
03:00 Legend Double Dagger 4.3 1.2 80 1 8 24.1 97.82     LegendNANA
04:00 Legend Double Dagger 4.1 1.3 82 2 6 24.1 97.77     Cloudy
05:00 Legend Double Dagger 4.3 1.5 82 35 3 24.1 97.74     LegendNANA
06:00 Legend Double Dagger 4.0 1.2 82 4 7 24.1 97.68     LegendNANA
07:00 Legend Double Dagger 3.8 1.4 84 2 5 24.1 97.68     Cloudy
08:00 Legend Double Dagger 5.2 2.2 81 36 2 24.1 97.69     LegendNANA
09:00 Legend Double Dagger 6.4 3.2 80 30 3 16.1 97.66     Rain
10:00 Legend Double Dagger 7.1 4.3 82 36 1 16.1 97.65     Cloudy
11:00 Legend Double Dagger 7.3 4.6 83 35 3 24.1 97.60     Rain
12:00 Legend Double Dagger 7.5 4.6 82 31 5 24.1 97.53     Rain
13:00 Legend Double Dagger 7.9 5.9 87 31 4 24.1 97.46     Rain
14:00 Legend Double Dagger 7.8 5.6 86 34 6 24.1 97.41     Rain
15:00 Legend Double Dagger 7.3 5.1 86 32 4 24.1 97.41     Rain
16:00 Legend Double Dagger 7.2 5.7 90 34 4 19.3 97.41     Rain
17:00 Legend Double Dagger 7.0 6.1 94   0 19.3 97.41     Rain
18:00 Legend Double Dagger 6.7 6.0 95 36 2 19.3 97.41     Rain
19:00 Legend Double Dagger 6.6 6.2 97 4 3 19.3 97.41     Rain
20:00 Legend Double Dagger 6.8 6.4 97 21 3 24.1 97.36     Rain
21:00 Legend Double Dagger 7.1 6.4 95 36 4 24.1 97.32     LegendNANA
22:00 Legend Double Dagger 7.4 6.7 95 16 9 24.1 97.29     Cloudy
23:00 Legend Double Dagger 7.7 6.7 93 15 7 24.1 97.33     LegendNANA

Notes on Data Quality.

Legend

  • E = Estimated
  • M = Missing
  • NA = Not Available
  • ‡ = Partner data that is not subject to review by the National Climate Archives
Date modified: